Simultaneous Nadir Overpasses (SNOs) Predictions

Prediction of SNOs between NOAA-20 and AQUA Satellite Orbit:

Table of predicted SNOs for the next 14.0 days since TLE Epoch: 9/9/2023
Index Date (NOAA-20) Time (NOAA-20) Lat,Lon (NOAA-20) SZA (NOAA-20 ) Date (AQUA) Time (AQUA) Lat,Lon (AQUA) SZA (AQUA ) Distance(km) Time Diff (sec)
1 09/10/2023 21:14:40 -80.81, -46.91 95.12 09/10/2023 21:15:15 -80.81, -46.74 95.17 3.13 35
2 09/10/2023 22:05:22 80.86, 121.37 84.74 09/10/2023 22:04:37 80.86, 121.50 84.75 2.18 45
3 09/13/2023 10:59:19 80.79, -73.35 85.86 09/13/2023 11:00:23 80.79, -73.29 85.80 1.01 64
4 09/13/2023 11:50:01 -80.85, 95.08 94.31 09/13/2023 11:49:45 -80.86, 95.25 94.33 3.13 16
5 09/16/2023 01:34:40 80.83, 68.58 86.69 09/16/2023 01:34:52 80.84, 68.70 86.66 2.16 12
6 09/16/2023 02:25:20 -80.93,-122.26 93.59 09/16/2023 02:24:13 -80.93,-122.40 93.52 2.44 67
7 09/18/2023 15:19:18 -80.84, 42.58 92.40 09/18/2023 15:19:58 -80.84, 42.52 92.42 1.18 40
8 09/18/2023 16:09:59 80.91,-148.81 87.42 09/18/2023 16:09:19 80.91,-148.94 87.47 2.22 40
9 09/21/2023 05:03:56 80.82, 15.98 88.62 09/21/2023 05:05:02 80.82, 16.00 88.58 0.38 66



Historial Predications of SNOs between NOAA-20 and AQUA
